カタログに戻る

YAOGAN-36 04A

運用中軍事VLEO
NORAD 54746·PAYLOAD·🇨🇳 China

打ち上げ Dec 14, 2022 から Xichang Satellite Launch Center

Loading…

次のパス (今後24時間)

TLE

最新Source: Space-Track

元期: Sep 14, 2026, 14:48 UTC

1 54746U 22171A   26257.61691530  .00005620  00000-0  24206-3 0  9992
2 54746  34.9918  20.2805 0007106  14.8547 345.2375 15.21926912208751

AllMySatでYAOGAN-36 04Aをリアルタイム追跡

Download on the App Store